Home   Weather   Karaikudi   Past weeks
Flag for India

Past Weather in Karaikudi, Tamil Nadu, India — Yesterday and Last 2 Weeks

Now
93 °F

Scattered clouds.


Feels Like: 105 °F
Forecast: 92 / 78 °F
Wind: 5 mph from Northwest

Location: Tiruchchirapalli

Current Time: Sep 20, 2019 at 3:25:08 pm

Latest Report: Sep 20, 2019 at 2:30 pm


Visibility: N/A

Pressure: 29.68 "Hg

Humidity: 56%

Dew Point: 75 °F

Location of KaraikudiLocation

Past Weather in Karaikudi — Graph

°F

Karaikudi Temperature Yesterday

Maximum temperature yesterday: 93 °F (at 2:00 pm)
Minimum temperature yesterday: 77 °F (at 8:30 pm)
Average temperature yesterday: 84 °F

High & Low Weather Summary for the Past Weeks

 TemperatureHumidityPressure
High102 °F (Sep 9, 3:00 pm)100% (Sep 17, 3:00 am)29.89 "Hg (Sep 17, 3:00 am)
Low75 °F (Sep 12, 10:30 pm)31% (Sep 6, 2:30 pm)29.62 "Hg (Sep 5, 3:30 pm)
Average86 °F68%29.75 "Hg
* Reported Sep 5 1:30 pm — Sep 20 2:00 pm, Karaikudi. Weather by CustomWeather, © 2019

Note: Actual official high and low records may vary slightly from our data, if they occured in-between our weather recording intervals... More about our weather records

Advertising

Karaikudi Weather History for the Previous 24 Hours

Scroll right to see more
 ConditionsComfort  
Time TempWeatherWind HumidityBarometerVisibility
2:00 pm
Fri, Sep 20
93 °FScattered clouds.7 mph53%29.71 "HgN/A
1:00 pm91 °FScattered clouds.7 mph56%29.74 "HgN/A
12:30 pm91 °FScattered clouds.9 mph56%29.74 "HgN/A
12:00 pm90 °FScattered clouds.9 mph59%29.77 "HgN/A
11:30 am90 °FScattered clouds.7 mph59%29.80 "HgN/A
11:00 am90 °FPassing clouds.9 mph63%29.80 "Hg5 mi
10:30 am88 °FPassing clouds.9 mph66%29.80 "Hg5 mi
10:00 am86 °FPassing clouds.7 mph70%29.80 "Hg5 mi
9:30 am84 °FScattered clouds.6 mph79%29.80 "Hg4 mi
9:00 am82 °FScattered clouds.5 mph84%29.80 "Hg4 mi
8:30 am81 °FPartly sunny.2 mph89%29.80 "Hg4 mi
8:00 am81 °FPartly sunny.2 mph84%29.80 "Hg4 mi
7:30 am81 °FBroken clouds.2 mph84%29.80 "Hg4 mi
7:00 am79 °FBroken clouds.2 mph89%29.77 "Hg4 mi
6:30 am79 °FPassing clouds.2 mph89%29.74 "Hg4 mi
6:00 am79 °FPassing clouds.2 mph89%29.74 "Hg4 mi
5:30 am79 °FPassing clouds.2 mph89%29.74 "Hg4 mi
5:00 am77 °FPartly cloudy.3 mph94%29.74 "Hg4 mi
4:30 am77 °FPartly cloudy.3 mph94%29.74 "Hg4 mi
4:00 am77 °FFog.3 mph94%29.74 "Hg3 mi
3:30 am77 °FFog.3 mph94%29.74 "Hg3 mi
3:00 am77 °FFog.3 mph94%29.74 "Hg3 mi
2:30 am77 °FFog.3 mph94%29.74 "Hg3 mi
2:00 am77 °FFog.3 mph100%29.74 "Hg3 mi
1:30 am77 °FFog.3 mph100%29.74 "Hg3 mi
1:00 am77 °FFog.5 mph100%29.74 "Hg2 mi
12:30 am77 °FFog.5 mph100%29.77 "Hg2 mi
12:00 am77 °FPartly cloudy.5 mph100%29.77 "Hg2 mi
11:30 pm
Thu, Sep 19
77 °FPartly cloudy.5 mph100%29.77 "Hg2 mi
11:00 pm77 °FPartly cloudy.5 mph94%29.77 "Hg2 mi
10:30 pm77 °FLight rain. Partly cloudy.5 mph94%29.80 "Hg2 mi
10:00 pm77 °FThunderstorms. Partly cloudy.6 mph94%29.80 "Hg2 mi
9:30 pm77 °FThunderstorms. Partly cloudy.6 mph94%29.80 "Hg2 mi
9:00 pm77 °FThunderstorms. Partly cloudy.7 mph94%29.80 "Hg2 mi
8:30 pm77 °FThunderstorms. Partly cloudy.9 mph94%29.80 "Hg2 mi
8:00 pm79 °FThunderstorms. Partly cloudy.14 mph94%29.80 "Hg2 mi
7:30 pm79 °FThunderstorms. Partly cloudy.14 mph94%29.77 "Hg1 mi
7:00 pm86 °FPartly cloudy.12 mph75%29.77 "Hg2 mi
6:30 pm88 °FLight rain. Broken clouds.12 mph66%29.71 "Hg2 mi
6:00 pm88 °FDrizzle. Broken clouds.12 mph66%29.71 "Hg3 mi
5:30 pm91 °FBroken clouds.12 mph56%29.68 "Hg4 mi
5:00 pm91 °FBroken clouds.5 mph56%29.68 "Hg5 mi
4:30 pm91 °FBroken clouds.5 mph56%29.65 "Hg5 mi
4:00 pm93 °FScattered clouds.6 mph53%29.65 "Hg5 mi
3:30 pm93 °FScattered clouds.7 mph53%29.65 "Hg5 mi
3:00 pm93 °FScattered clouds.5 mph53%29.68 "Hg5 mi
Weather by CustomWeather, © 2019

See weather overview